When you browse on this site, cookies collect data to enhance your experience and personalize the content and advertising you see.
Visit our Privacy Policy to learn more. By continuing to use the site, you agree to this use of cookies and data.
  • In Spain
  • List of Countries
  • For 7 days
  • Water Temperature
  • Satellite Maps
  • Weather Map
  • Weather Widgets
  • user-avatar
    Login

    Hourly Weather Yarcevo

    Today, 20 March, Wednesday

    Time Temperature Precipitation Wind Pressure Humidity
    00:00 +1°C° 0 mm 2 mps 753 mmHg 98%
    01:00 +1°C° 0 mm 2 mps 753 mmHg 97%
    02:00 +1°C° 0 mm 2 mps 753 mmHg 97%
    03:00 -1°C° 0 mm 2 mps 753 mmHg 96%
    04:00 -1°C° 0 mm 2 mps 753 mmHg 95%
    05:00 -1°C° 0 mm 2 mps 753 mmHg 94%
    06:00 +1°C° 0 mm 2 mps 753 mmHg 93%
    07:00 +1°C° 0 mm 2 mps 753 mmHg 93%
    08:00 +2°C° 0 mm 2 mps 754 mmHg 93%
    09:00 +2°C° 0 mm 2 mps 754 mmHg 92%
    10:00 +3°C° 0 mm 2 mps 754 mmHg 91%
    11:00 +3°C° 0 mm 2 mps 754 mmHg 90%
    12:00 +4°C° 0 mm 2 mps 754 mmHg 88%
    13:00 +3°C° 0 mm 3 mps 754 mmHg 87%
    14:00 +3°C° 0 mm 3 mps 754 mmHg 85%
    15:00 +3°C° 0 mm 2 mps 754 mmHg 85%
    16:00 +3°C° 0 mm 2 mps 754 mmHg 86%
    17:00 +2°C° 0 mm 2 mps 754 mmHg 87%
    18:00 +2°C° 0 mm 2 mps 754 mmHg 87%
    19:00 +1°C° 0 mm 2 mps 754 mmHg 87%
    20:00 +1°C° 0 mm 2 mps 755 mmHg 88%
    21:00 -1°C° 0 mm 2 mps 755 mmHg 89%
    22:00 -1°C° 0 mm 2 mps 754 mmHg 90%
    23:00 -2°C° 0 mm 2 mps 754 mmHg 91%

    Tomorrow, 21 March, Thursday

    Time Temperature Precipitation Wind Pressure Humidity
    00:00 -2°C° 0 mm 2 mps 754 mmHg 90%
    01:00 -2°C° 0 mm 2 mps 754 mmHg 89%
    02:00 -2°C° 0 mm 2 mps 754 mmHg 88%
    03:00 -2°C° 0 mm 2 mps 753 mmHg 86%
    04:00 -2°C° 0 mm 3 mps 753 mmHg 85%
    05:00 -2°C° 0 mm 3 mps 753 mmHg 84%
    06:00 -1°C° 0 mm 3 mps 752 mmHg 82%
    07:00 -2°C° 0 mm 4 mps 752 mmHg 80%
    08:00 -1°C° 0 mm 5 mps 751 mmHg 79%
    09:00 -1°C° 0.3 mm 5 mps 751 mmHg 81%
    10:00 -1°C° 0.3 mm 5 mps 751 mmHg 83%
    11:00 -1°C° 0.3 mm 5 mps 750 mmHg 86%
    12:00 0°C° 0.2 mm 5 mps 750 mmHg 87%
    13:00 0°C° 0.2 mm 4 mps 750 mmHg 88%
    14:00 +1°C° 0.2 mm 4 mps 750 mmHg 89%
    15:00 +1°C° 0.1 mm 4 mps 750 mmHg 89%
    16:00 +1°C° 0.1 mm 4 mps 750 mmHg 88%
    17:00 +1°C° 0.1 mm 4 mps 750 mmHg 88%
    18:00 0°C° 0 mm 4 mps 750 mmHg 87%
    19:00 -1°C° 0 mm 4 mps 751 mmHg 87%
    20:00 -1°C° 0 mm 4 mps 751 mmHg 86%
    21:00 -2°C° 0 mm 4 mps 751 mmHg 88%
    22:00 -2°C° 0 mm 4 mps 751 mmHg 89%
    23:00 -1°C° 0 mm 3 mps 751 mmHg 91%

    Day after tomorrow, 22 March, Friday

    Time Temperature Precipitation Wind Pressure Humidity
    00:00 -1°C° 0 mm 3 mps 751 mmHg 91%
    01:00 -1°C° 0 mm 3 mps 751 mmHg 91%
    02:00 -1°C° 0 mm 2 mps 752 mmHg 90%
    03:00 -1°C° 0 mm 2 mps 751 mmHg 90%
    04:00 -1°C° 0 mm 2 mps 751 mmHg 90%
    05:00 -1°C° 0 mm 2 mps 751 mmHg 90%
    06:00 0°C° 0 mm 3 mps 751 mmHg 90%
    07:00 0°C° 0 mm 3 mps 751 mmHg 89%
    08:00 +1°C° 0 mm 3 mps 751 mmHg 88%
    09:00 +1°C° 0.1 mm 3 mps 750 mmHg 87%
    10:00 +2°C° 0.1 mm 3 mps 750 mmHg 86%
    11:00 +3°C° 0.1 mm 4 mps 749 mmHg 85%
    12:00 +3°C° 0.4 mm 4 mps 748 mmHg 87%
    13:00 +3°C° 0.4 mm 4 mps 748 mmHg 89%
    14:00 +1°C° 0.4 mm 4 mps 747 mmHg 91%
    15:00 +1°C° 0 mm 4 mps 747 mmHg 93%
    16:00 +1°C° 0 mm 4 mps 747 mmHg 94%
    17:00 +2°C° 0 mm 3 mps 747 mmHg 95%
    18:00 +1°C° 0 mm 4 mps 748 mmHg 95%
    19:00 +1°C° 0 mm 4 mps 748 mmHg 94%
    20:00 +1°C° 0 mm 4 mps 748 mmHg 93%
    21:00 +1°C° 0 mm 4 mps 748 mmHg 92%
    22:00 0°C° 0 mm 4 mps 748 mmHg 91%
    23:00 0°C° 0 mm 4 mps 748 mmHg 90%

    23 March, Saturday

    Time Temperature Precipitation Wind Pressure Humidity
    00:00 -1°C° 0 mm 4 mps 748 mmHg 90%
    01:00 -1°C° 0 mm 4 mps 748 mmHg 91%
    02:00 -2°C° 0 mm 4 mps 749 mmHg 91%
    03:00 -2°C° 0 mm 4 mps 749 mmHg 89%
    04:00 -2°C° 0 mm 4 mps 749 mmHg 88%
    05:00 -3°C° 0 mm 4 mps 749 mmHg 86%
    06:00 -2°C° 0 mm 4 mps 749 mmHg 82%
    07:00 -2°C° 0 mm 4 mps 749 mmHg 78%
    08:00 -1°C° 0 mm 4 mps 750 mmHg 74%
    09:00 0°C° 0 mm 4 mps 750 mmHg 71%
    10:00 +1°C° 0 mm 4 mps 749 mmHg 67%
    11:00 +3°C° 0 mm 4 mps 749 mmHg 64%
    12:00 +3°C° 0 mm 4 mps 749 mmHg 62%
    13:00 +4°C° 0 mm 3 mps 749 mmHg 61%
    14:00 +5°C° 0 mm 3 mps 748 mmHg 59%
    15:00 +4°C° 0 mm 3 mps 748 mmHg 63%
    16:00 +3°C° 0 mm 3 mps 747 mmHg 66%
    17:00 +4°C° 0 mm 2 mps 747 mmHg 69%
    18:00 +3°C° 0 mm 3 mps 746 mmHg 77%
    19:00 +3°C° 0 mm 4 mps 746 mmHg 84%
    20:00 +3°C° 0 mm 4 mps 746 mmHg 91%
    21:00 +3°C° 0.1 mm 5 mps 745 mmHg 92%
    22:00 +3°C° 0.1 mm 5 mps 744 mmHg 93%
    23:00 +3°C° 0.1 mm 6 mps 743 mmHg 94%

    24 March, Sunday

    Time Temperature Precipitation Wind Pressure Humidity
    00:00 +4°C° 0.3 mm 6 mps 743 mmHg 94%
    01:00 +4°C° 0.3 mm 6 mps 742 mmHg 93%
    02:00 +5°C° 0.3 mm 6 mps 742 mmHg 93%
    03:00 +3°C° 0 mm 6 mps 742 mmHg 92%
    04:00 +2°C° 0 mm 5 mps 743 mmHg 91%
    05:00 0°C° 0 mm 5 mps 743 mmHg 89%
    06:00 +1°C° 0 mm 6 mps 743 mmHg 85%
    07:00 +1°C° 0 mm 6 mps 744 mmHg 80%
    08:00 0°C° 0 mm 7 mps 744 mmHg 75%
    09:00 +1°C° 0 mm 8 mps 744 mmHg 64%
    10:00 +2°C° 0 mm 8 mps 744 mmHg 54%
    11:00 +2°C° 0 mm 9 mps 744 mmHg 43%
    12:00 +3°C° 0 mm 9 mps 743 mmHg 42%
    13:00 +3°C° 0 mm 10 mps 743 mmHg 41%
    14:00 +3°C° 0 mm 10 mps 743 mmHg 40%
    15:00 +3°C° 0 mm 9 mps 743 mmHg 44%
    16:00 +2°C° 0 mm 8 mps 743 mmHg 47%
    17:00 +3°C° 0 mm 7 mps 743 mmHg 51%
    18:00 +2°C° 0 mm 7 mps 743 mmHg 54%
    19:00 +1°C° 0 mm 6 mps 743 mmHg 57%
    20:00 0°C° 0 mm 5 mps 743 mmHg 61%
    21:00 0°C° 0 mm 5 mps 743 mmHg 61%
    22:00 -1°C° 0 mm 5 mps 743 mmHg 62%
    23:00 -2°C° 0 mm 6 mps 743 mmHg 63%

    25 March, Monday

    Time Temperature Precipitation Wind Pressure Humidity
    00:00 -1°C° 0 mm 5 mps 743 mmHg 63%
    01:00 -2°C° 0 mm 5 mps 743 mmHg 64%
    02:00 -2°C° 0 mm 5 mps 743 mmHg 65%
    03:00 -2°C° 0 mm 5 mps 743 mmHg 66%
    04:00 -2°C° 0 mm 5 mps 743 mmHg 67%
    05:00 -4°C° 0 mm 5 mps 743 mmHg 67%
    06:00 -2°C° 0 mm 5 mps 743 mmHg 64%
    07:00 -1°C° 0 mm 5 mps 743 mmHg 60%
    08:00 0°C° 0 mm 5 mps 743 mmHg 56%
    09:00 +1°C° 0 mm 5 mps 742 mmHg 51%
    10:00 +2°C° 0 mm 5 mps 742 mmHg 45%
    11:00 +3°C° 0 mm 6 mps 741 mmHg 40%
    12:00 +3°C° 0 mm 6 mps 740 mmHg 42%
    13:00 +4°C° 0 mm 6 mps 740 mmHg 44%
    14:00 +4°C° 0 mm 6 mps 739 mmHg 47%
    15:00 +3°C° 0.1 mm 5 mps 738 mmHg 51%
    16:00 +4°C° 0.1 mm 4 mps 738 mmHg 56%
    17:00 +4°C° 0.1 mm 3 mps 737 mmHg 60%
    18:00 +3°C° 0.2 mm 3 mps 737 mmHg 66%
    19:00 +3°C° 0.2 mm 3 mps 736 mmHg 73%
    20:00 +2°C° 0.2 mm 3 mps 736 mmHg 79%
    21:00 +1°C° 0 mm 4 mps 735 mmHg 80%
    22:00 0°C° 0 mm 4 mps 735 mmHg 81%
    23:00 0°C° 0 mm 4 mps 735 mmHg 81%
    Show more